THOR ABLESTAR DEB, 644

Orbit data source: Space-Track

THOR ABLESTAR DEB, 644 is space debris in LEO originally from a launch on Thu, 29 Jun 1961 UTC launched from the Air Force Eastern Test Range (AFETR). Debris objects in space refer to the collection of defunct objects orbiting the Earth. Examples of debris include non-operational satellites, rocket bodies, and fragments generated from explosions, collisions, or faulty payload assembly.

Loading next visibility...
Identifier
644, 1961-015GV
Orbit
LEO
Country
Flag of USUS
Related business
Manufacturer
Unknown
Mission
Spacecraft
Bus & Motor
Unknown
Mass
Unknown
Launch date (UTC)
1961-06-29 (65 years ago)
Launch vehicle
Unknown
Launch site
Air Force Eastern Test Range (AFETR)
Object type
Payload
Rocket body
Debris
Shape & HBR
Unknown shape, 0.1 m
Radar Cross Section
Small (<0.1 m²)

Expand to show TLE details & history
Last TLE update: 10 hours ago

TLE from 10 hours ago
0 THOR ABLESTAR DEB
1 00644U 61015GV  26128.12787311  .00000988  00000-0  13065-2 0  9998
2 00644  67.0995  28.1775 0132948 144.8325   5.3150 13.61292796192288
Epoch: 2026-05-08T03:04Z
TLE epoch observation values (Epoch: 2026-05-08T03:04:08.236Z)
Latitude
27.21729°
Longitude
-76.30221°
Altitude
935.414 km
Speed
7.436 km/s
True Right ascension
13h 02m 47s
True Declination
27° 04' 52"
Sunlit
Object was in full shadow at epoch
Visualization orbit readout
Latitude
Unknown
Longitude
Unknown
Altitude
Unknown
Speed
Unknown
Apparent Right ascension
Unknown
Apparent Declination
Unknown
Sunlit
N/A
Visualization observer readout
Local Sidereal Time
20:58:44
Azimuth
Unknown
Elevation
Unknown
Doppler factor
Unknown
Orbital elements
Apogee altitude
1,127.861 km
Perigee altitude
930.898 km
Semi-major axis
7,407.517 km
Eccentricity
0.01329
Inclination
67.0995°
RAAN
28.1775°
Arg. of periapsis
144.8325°
True anomaly
5.45849°
Mean anomaly
5.315°
Eccentric anomaly
5.38651°
Mean motion
3.40435 °/min
Orbital period
105.75 mins
BSTAR
0.0013065
Loading maneuver chart data...
Computing Atmospheric mass density...
Loading historical data...
Loading historical data...
Loading historical data...
Loading historical data...
Loading historical data...
Loading historical data...
Loading historical data...

Documentation

Showing up to 5 results
|